Simultaneous Nadir Overpasses (SNOs) Predictions

Prediction of SNOs between AQUA and GOES-15 Satellite Orbit:

Table of predicted SNOs for the next 14.0 days since TLE Epoch: 12/23/2016
Index Date Time (AQUA) AQUA Lat,Lon GOES-15 Lat,Lon Distance(km) Time Diff (sec)
1 12/24/2016 22:34:42 0.06,-134.87 0.06,-134.98 11.54 80
2 12/26/2016 22:22:31 0.68,-131.91 0.05,-134.91 340.06 80
3 12/27/2016 10:43:47 0.42,-137.07 -0.06,-134.91 246.31 80
4 12/29/2016 10:31:36 -0.21,-134.11 -0.06,-134.83 81.68 80
5 12/31/2016 10:19:25 -0.84,-131.16 -0.05,-134.75 409.01 80
6 12/31/2016 22:40:49 -0.26,-136.35 0.06,-134.70 186.24 80
7 01/02/2017 22:28:37 0.32,-133.38 0.06,-134.61 140.38 80
8 01/03/2017 10:49:53 0.78,-138.54 -0.07,-134.61 446.33 80
9 01/04/2017 22:16:26 0.96,-130.42 0.06,-134.52 466.47 80
10 01/05/2017 10:37:42 0.14,-135.58 -0.07,-134.52 120.44 80




NCC Satellite Simultaneous Nadir Overpasses (SNOs) Prediction Service
